Weather History for Kivalina, AK

Change the Weather History Date:

Tuesday, January 1, 2013

  Actual Average Record
Temperature  
Mean Temperature 22 °F -  
Max Temperature 27 °F - - ()
Min Temperature 17 °F - - ()
Degree Days  
Heating Degree Days 42    
Moisture  
Dew Point 18 °F    
Average Humidity 85    
Maximum Humidity 93    
Minimum Humidity 77    
Precipitation  
Precipitation 0.00 in - - ()
Sea Level Pressure  
Sea Level Pressure 29.47 in    
Wind  
Wind Speed 14 mph (NE)    
Max Wind Speed 20 mph    
Max Gust Speed -    
Visibility 10 miles    
Events Snow    
T = Trace of Precipitation, MM = Missing Value Source: NWS Daily Summary

Daily Weather History Graph

Daily Weather History Graph

Search for Another Location

Airport:

Trip Planner

Search our weather history database for the weather conditions in past years. The results will help you decide how hot, cold, wet, or windy it might be!

Date:

Astronomy

Jan. 01, 2013 Rise Set
Actual Time 1:31 PM AKST 2:33 PM AKST
Civil Twilight 11:10 AM AKST 4:53 PM AKST
Nautical Twilight 9:45 AM AKST 6:18 PM AKST
Astronomical Twilight 8:36 AM AKST 7:28 PM AKST
Moon 11:01 PM AKST (1/1) 12:17 PM AKST (1/1)
Length of Visible Light 5h 42m
Length of Day
1h 01m
Waning Gibbous, 82% of the Moon is Illuminated
Jan 1
Waning Gibbous
Jan 4
Last Quarter
Jan 11
New
Jan 18
First Quarter
Jan 26
Full

Hourly Weather History & Observations

Time (AKST) Temp. Windchill Dew Point Humidity Pressure Visibility Wind Dir Wind Speed Gust Speed Precip Events Conditions
12:01 AM 21.2 °F 8.9 °F 19.4 °F 93% 29.63 in 4.0 mi ENE 12.7 mph - 0.00 in Snow Light Snow
12:53 AM 21.9 °F 7.8 °F 19.0 °F 89% 29.64 in 7.0 mi East 17.3 mph - 0.00 in   Overcast
1:27 AM 21.2 °F 7.8 °F 19.4 °F 93% 29.64 in 6.0 mi East 15.0 mph - 0.00 in   Overcast
1:53 AM 21.9 °F 7.8 °F 19.9 °F 92% 29.64 in 10.0 mi East 17.3 mph - 0.00 in   Overcast
2:31 AM 21.2 °F 7.3 °F 19.4 °F 93% 29.63 in 10.0 mi East 16.1 mph - N/A   Overcast
2:38 AM 21.2 °F 7.3 °F 19.4 °F 93% 29.63 in 10.0 mi East 16.1 mph - N/A   Overcast
3:28 AM 21.2 °F 8.3 °F 19.4 °F 93% 29.62 in 10.0 mi ENE 13.8 mph - N/A   Overcast
3:53 AM 19.9 °F 6.2 °F 18.0 °F 92% 29.62 in 10.0 mi ENE 15.0 mph - N/A   Scattered Clouds
4:06 AM 21.2 °F 6.8 °F 19.4 °F 93% 29.61 in 10.0 mi East 17.3 mph - N/A   Mostly Cloudy
4:53 AM 23.0 °F 9.6 °F 19.9 °F 88% 29.60 in 10.0 mi ENE 16.1 mph - N/A   Overcast
5:53 AM 24.1 °F 11.5 °F 19.9 °F 84% 29.59 in 10.0 mi ENE 15.0 mph - N/A   Overcast
6:34 AM 24.8 °F 13.4 °F 19.4 °F 80% 29.57 in 10.0 mi NE 12.7 mph - N/A   Mostly Cloudy
6:53 AM 21.9 °F 11.0 °F 19.0 °F 89% 29.57 in 10.0 mi NE 10.4 mph - N/A   Partly Cloudy
7:53 AM 23.0 °F 10.1 °F 19.0 °F 85% 29.55 in 10.0 mi NE 15.0 mph - N/A   Clear
9:53 AM 23.0 °F 11.7 °F 19.9 °F 88% 29.50 in 10.0 mi NE 11.5 mph - N/A   Overcast
10:53 AM 24.1 °F 13.1 °F 19.9 °F 84% 29.47 in 10.0 mi NNE 11.5 mph - N/A   Overcast
11:53 AM 23.0 °F 11.1 °F 19.9 °F 88% 29.45 in 10.0 mi NE 12.7 mph - N/A   Overcast
12:53 PM 24.1 °F 12.5 °F 19.9 °F 84% 29.42 in 10.0 mi NE 12.7 mph - N/A   Scattered Clouds
1:53 PM 26.1 °F 14.0 °F 21.0 °F 81% 29.40 in 10.0 mi NE 15.0 mph - N/A   Overcast
2:53 PM 27.0 °F 14.7 °F 21.0 °F 78% 29.36 in 10.0 mi NE 16.1 mph - N/A   Overcast
3:53 PM 27.0 °F 13.5 °F 21.0 °F 78% 29.33 in 10.0 mi NNE 19.6 mph - N/A   Overcast
4:53 PM 25.0 °F 14.8 °F 19.9 °F 81% 29.31 in 10.0 mi NE 10.4 mph - N/A   Overcast
5:53 PM 24.1 °F 17.0 °F 18.0 °F 77% 29.29 in 10.0 mi NE 5.8 mph - N/A   Mostly Cloudy
6:53 PM 21.9 °F 9.2 °F 16.0 °F 78% 29.27 in 10.0 mi NNE 13.8 mph - N/A   Overcast
7:53 PM 21.0 °F 8.1 °F 15.1 °F 78% 29.25 in 10.0 mi NNE 13.8 mph - N/A   Overcast
8:53 PM 19.0 °F 7.5 °F 14.0 °F 81% 29.23 in 10.0 mi NNE 10.4 mph - N/A   Clear
9:53 PM 19.9 °F 7.9 °F 14.0 °F 78% 29.23 in 10.0 mi NNE 11.5 mph - N/A   Overcast
10:53 PM 18.0 °F 3.1 °F 12.0 °F 78% 29.23 in 10.0 mi NNE 16.1 mph - N/A   Mostly Cloudy
11:53 PM 17.1 °F 2.5 °F 10.9 °F 77% 29.23 in 10.0 mi NNE 15.0 mph - N/A   Mostly Cloudy